Location: Poughquag
(41.6090°N, 73.6820°W)
Time: 11:48:07
(UTC-04:00)

ISS - Visible Passes

Search period start: 26 June 2022 00:00
Search period end: 06 July 2022 00:00
Orbit: 415 x 420 km, 51.6° (Epoch: 26 June)

Date Brightness Start Highest point End Pass type
(mag) Time Alt. Az. Time Alt. Az. Time Alt. Az.
26 Jun -2.9 04:19:52 13° SSW 04:22:32 40° SE 04:25:43 10° ENE visible
27 Jun -2.1 03:33:38 20° SSE 03:34:34 23° SE 03:37:19 10° E visible
28 Jun -1.2 02:47:20 13° ESE 02:47:20 13° ESE 02:48:25 10° E visible
28 Jun -3.6 04:20:14 14° WSW 04:23:01 72° NNW 04:26:23 10° NE visible
29 Jun -3.7 03:33:52 39° SSW 03:34:54 67° SE 03:38:16 10° ENE visible
30 Jun -2.6 02:47:27 34° ESE 02:47:27 34° ESE 02:50:01 10° ENE visible
30 Jun -2.3 04:20:36 10° W 04:23:40 32° NNW 04:26:44 10° NE visible
01 Jul -1.1 02:00:58 13° E 02:00:58 13° E 02:01:32 10° E visible
01 Jul -3.0 03:33:52 25° W 03:35:26 46° NNW 03:38:42 10° NE visible
02 Jul -3.7 02:47:20 74° NNW 02:47:20 74° NNW 02:50:37 10° NE visible
02 Jul -1.4 04:21:54 10° WNW 04:24:27 20° NNW 04:27:00 10° NE visible
03 Jul -1.9 02:00:45 27° ENE 02:00:45 27° ENE 02:02:27 10° ENE visible
03 Jul -1.7 03:33:38 12° WNW 03:36:07 24° NNW 03:38:57 10° NE visible
04 Jul -0.7 01:14:06 10° ENE 01:14:06 10° ENE 01:14:09 10° ENE visible
04 Jul -2.3 02:47:00 28° NW 02:47:48 33° NNW 02:50:54 10° NE visible
04 Jul -0.9 04:23:14 10° NW 04:25:20 15° N 04:27:26 10° NNE visible
05 Jul -2.4 02:00:19 39° NNE 02:00:19 39° NNE 02:02:50 10° NE visible
05 Jul -1.0 03:34:37 10° NW 03:36:55 17° N 03:39:13 10° NNE visible
